Location: *
(37.5724°S, 58.0067°E)
Time: 11:34:25
(UTC+00:00)

USA 229 - Pass Details

Date: 26 September 2020
Orbit: 973 x 1239 km, 63.4° (Epoch: 14 October)

Event Time Altitude Azimuth Distance (km) Brightness Sun altitude
Exits shadow 22:43:03 67° 80° (E) 1,303 4.1 -35.4°
Drops below altitude 10° 22:50:03 10° 142° (SE) 3,089 6.8 -34.3°
Sets 22:52:44 0° 144° (SE) 4,019 7.6 -33.9°
